Date String (YYYY-MM-DD hh:mm:ss) UTC,Instrument flags,Ambient pressure (hPa),Sample flow (lpm),Bypass flow (lpm),Sample temperature (°C),Ambient temperature (°C),ASC tube jacket temperature (°C),LED temperature (°C),Box temperature (°C),Sample RH (%),Span deviation,Mass concentration (μg/m³),Mass concentration (μg/m³),Mass concentration (μg/m³)
DateTimeUTC,F1_M11,P_M11,Q1_M11,Q2_M11,T1_M11,T2_M11,T3_M11,T4_M11,T5_M11,U1_M11,ZSPAN_M11,X2_M11,X0_M11,X1_M11
2022-06-11 03:00:00,,0824.6,4.99,0.00,28.9,27.8,00.0,37.7,30.9,25.4,0000.0,0006.09,0018.92,0004.09
2022-06-11 03:01:00,,0824.7,4.99,0.00,28.9,27.9,00.0,37.7,30.9,25.3,0000.0,0006.11,0018.28,0004.10
2022-06-11 03:02:00,,0824.7,5.00,0.00,29.0,28.1,00.0,37.7,31.0,25.3,0000.0,0006.12,0018.70,0004.08
2022-06-11 03:03:00,,0824.7,4.99,0.00,29.0,28.2,00.0,37.8,31.0,25.2,0000.0,0006.05,0018.99,0004.07
2022-06-11 03:04:00,,0824.7,5.00,0.00,29.0,28.2,00.0,37.8,31.1,24.8,0000.0,0006.03,0018.79,0004.06
2022-06-11 03:05:00,,0824.6,4.99,0.00,29.1,28.3,00.0,37.8,31.1,24.7,0000.0,0006.04,0018.29,0004.06
2022-06-11 03:06:00,,0824.6,5.00,0.00,29.1,27.8,00.0,37.8,31.0,24.6,0000.0,0006.06,0018.37,0004.06
2022-06-11 03:07:00,,0824.6,5.01,0.00,29.0,27.0,00.0,37.7,30.7,24.8,0000.0,0006.05,0018.82,0004.07
2022-06-11 03:08:00,,0824.6,4.99,0.00,28.9,26.6,00.0,37.7,30.6,24.9,0000.0,0006.05,0018.66,0004.08
2022-06-11 03:09:00,,0824.6,5.01,0.00,28.8,26.6,00.0,37.7,30.5,25.4,0000.0,0006.11,0018.50,0004.08
2022-06-11 03:10:00,,0824.7,5.00,0.00,28.7,26.6,00.0,37.7,30.4,25.3,0000.0,0006.13,0018.23,0004.08
2022-06-11 03:11:00,,0824.7,5.00,0.00,28.7,26.8,00.0,37.7,30.5,24.9,0000.0,0006.16,0018.09,0004.07
2022-06-11 03:12:00,,0824.7,4.99,0.00,28.7,27.0,00.0,37.6,30.5,24.7,0000.0,0006.12,0017.94,0004.06
2022-06-11 03:13:00,,0824.7,4.99,0.00,28.7,27.2,00.0,37.6,30.6,24.5,0000.0,0006.12,0017.76,0004.06
2022-06-11 03:14:00,,0824.7,5.01,0.00,28.7,27.3,00.0,37.6,30.7,24.6,0000.0,0006.16,0017.89,0004.06
2022-06-11 03:15:00,,0824.8,5.00,0.00,28.8,27.5,00.0,37.6,30.7,24.6,0000.0,0006.16,0018.56,0004.05
2022-06-11 03:16:00,,0824.7,5.00,0.00,28.8,27.6,00.0,37.7,30.8,24.4,0000.0,0006.18,0018.66,0004.05
2022-06-11 03:17:00,,0824.8,5.00,0.00,28.8,27.8,00.0,37.7,30.8,24.3,0000.0,0006.19,0019.27,0004.04
2022-06-11 03:18:00,,0824.7,4.99,0.00,28.9,27.9,00.0,37.7,30.9,24.0,0000.0,0006.27,0018.70,0004.04
2022-06-11 03:19:00,,0824.7,5.00,0.00,28.9,28.0,00.0,37.7,30.9,23.5,0000.0,0006.33,0018.00,0004.05
2022-06-11 03:20:00,,0824.7,5.01,0.00,28.9,28.1,00.0,37.7,30.9,22.8,0000.0,0006.32,0018.14,0004.05
2022-06-11 03:21:00,,0824.8,4.99,0.00,29.0,28.2,00.0,37.8,31.0,22.5,0000.0,0006.39,0018.46,0004.06
2022-06-11 03:22:00,,0824.7,5.01,0.00,29.0,28.3,00.0,37.8,31.0,22.5,0000.0,0006.44,0018.90,0004.08
2022-06-11 03:23:00,,0824.7,5.00,0.00,29.1,28.3,00.0,37.8,31.1,22.8,0000.0,0006.46,0019.79,0004.09
2022-06-11 03:24:00,,0824.8,4.99,0.00,29.1,27.9,00.0,37.8,31.0,23.2,0000.0,0006.41,0020.19,0004.08
2022-06-11 03:25:00,,0824.7,5.01,0.00,29.0,27.2,00.0,37.7,30.8,23.3,0000.0,0006.43,0021.63,0004.08
2022-06-11 03:26:00,,0824.7,5.00,0.00,28.9,27.0,00.0,37.7,30.7,23.8,0000.0,0006.44,0020.87,0004.09
2022-06-11 03:27:00,,0824.7,5.01,0.00,28.9,27.0,00.0,37.7,30.6,24.0,0000.0,0006.44,0021.65,0004.10
2022-06-11 03:28:00,,0824.8,4.99,0.00,28.8,27.1,00.0,37.7,30.7,23.8,0000.0,0006.38,0021.04,0004.10
2022-06-11 03:29:00,,0824.8,4.99,0.00,28.8,27.3,00.0,37.7,30.7,23.6,0000.0,0006.32,0020.66,0004.11
2022-06-11 03:30:00,,0824.8,5.00,0.00,28.8,27.4,00.0,37.7,30.7,23.1,0000.0,0006.24,0020.66,0004.11
2022-06-11 03:31:00,,0824.8,4.99,0.00,28.9,27.6,00.0,37.7,30.8,22.9,0000.0,0006.19,0020.04,0004.11
2022-06-11 03:32:00,,0824.9,5.01,0.00,28.9,27.7,00.0,37.7,30.8,22.8,0000.0,0006.12,0020.86,0004.10
2022-06-11 03:33:00,,0824.9,5.00,0.00,28.9,27.8,00.0,37.8,30.9,22.8,0000.0,0006.01,0021.26,0004.09
2022-06-11 03:34:00,,0824.9,5.00,0.00,28.9,28.0,00.0,37.8,30.9,22.7,0000.0,0005.95,0020.11,0004.08
2022-06-11 03:35:00,,0824.9,5.00,0.00,29.0,28.1,00.0,37.8,31.0,22.6,0000.0,0005.94,0019.32,0004.08
2022-06-11 03:36:00,,0824.9,4.99,0.00,29.0,28.2,00.0,37.8,31.0,22.6,0000.0,0005.88,0017.82,0004.06
2022-06-11 03:37:00,,0824.9,5.00,0.00,29.1,28.2,00.0,37.8,31.1,23.0,0000.0,0005.75,0018.22,0004.04
2022-06-11 03:38:00,,0824.9,5.00,0.00,29.1,28.3,00.0,37.9,31.1,22.8,0000.0,0005.65,0017.46,0004.02
2022-06-11 03:39:00,,0824.9,5.00,0.00,29.1,28.4,00.0,37.9,31.2,22.1,0000.0,0005.57,0018.54,0004.02
2022-06-11 03:40:00,,0824.9,5.00,0.00,29.1,28.0,00.0,37.9,31.0,22.0,0000.0,0005.54,0018.97,0004.01
2022-06-11 03:41:00,,0824.9,5.00,0.00,29.1,27.4,00.0,37.8,30.9,21.6,0000.0,0005.50,0019.90,0003.99
2022-06-11 03:42:00,,0824.9,5.00,0.00,29.0,27.2,00.0,37.8,30.8,21.9,0000.0,0005.49,0020.60,0003.99
2022-06-11 03:43:00,,0824.9,5.01,0.00,28.9,27.2,00.0,37.8,30.7,21.7,0000.0,0005.47,0020.18,0003.97
2022-06-11 03:44:00,,0824.9,4.99,0.00,28.9,27.3,00.0,37.8,30.7,21.5,0000.0,0005.46,0021.16,0003.95
2022-06-11 03:45:00,,0824.9,5.00,0.00,28.9,27.4,00.0,37.8,30.8,21.1,0000.0,0005.49,0023.01,0003.92
2022-06-11 03:46:00,,0824.9,5.01,0.00,28.9,27.5,00.0,37.8,30.8,20.5,0000.0,0005.46,0024.95,0003.89
2022-06-11 03:47:00,,0824.9,5.00,0.00,28.9,27.6,00.0,37.8,30.9,20.1,0000.0,0005.39,0025.24,0003.87
2022-06-11 03:48:00,,0824.9,5.00,0.00,29.0,27.8,00.0,37.8,30.9,20.4,0000.0,0005.39,0025.19,0003.85
2022-06-11 03:49:00,,0825.0,5.01,0.00,29.0,27.9,00.0,37.8,30.9,20.3,0000.0,0005.45,0026.68,0003.83
2022-06-11 03:50:00,,0824.9,5.01,0.00,29.0,28.0,00.0,37.9,31.0,20.5,0000.0,0005.56,0027.13,0003.81
2022-06-11 03:51:00,,0824.9,5.00,0.00,29.0,28.1,00.0,37.9,31.0,20.6,0000.0,0005.60,0027.27,0003.79
2022-06-11 03:52:00,,0824.9,4.99,0.00,29.1,28.2,00.0,37.9,31.1,20.4,0000.0,0005.61,0025.96,0003.78
2022-06-11 03:53:00,,0824.9,4.99,0.00,29.1,28.3,00.0,37.9,31.1,19.4,0000.0,0005.59,0026.03,0003.76
2022-06-11 03:54:00,,0824.9,5.00,0.00,29.1,28.3,00.0,37.9,31.1,18.6,0000.0,0005.58,0026.03,0003.73
2022-06-11 03:55:00,,0824.9,5.01,0.00,29.2,28.4,00.0,37.9,31.2,19.2,0000.0,0005.60,0024.43,0003.73
2022-06-11 03:56:00,,0824.9,5.01,0.00,29.2,28.0,00.0,37.9,31.1,19.6,0000.0,0005.63,0022.79,0003.72
2022-06-11 03:57:00,,0825.0,4.99,0.00,29.1,27.1,00.0,37.8,30.8,19.7,0000.0,0005.64,0020.79,0003.72
2022-06-11 03:58:00,,0824.9,5.01,0.00,29.0,26.6,00.0,37.8,30.7,19.7,0000.0,0005.68,0020.23,0003.72
2022-06-11 03:59:00,,0824.9,4.99,0.00,28.9,26.5,00.0,37.8,30.6,19.5,0000.0,0005.79,0019.70,0003.71
